When you browse on this site, cookies collect data to enhance your experience and personalize the content and advertising you see.
Visit our Privacy Policy to learn more. By continuing to use the site, you agree to this use of cookies and data.
  • In Schweiz
  • Länderverzeichnis
  • Für 7 Tage
  • Wassertemperatur
  • Satellitenkarten
  • Wetterkarte
  • Widgets
  • user-avatar
    Anmelden

    Stündliche Wetter Plavni

    Heute, 20 Juli, Samstag

    Zeit Temperatur Niederschläge Wind Luftdruck Luftfeuchtigkeit
    00:00 +21°C° 0 mm 1 m/S 759 mmHg 61%
    01:00 +20°C° 0 mm 1 m/S 759 mmHg 62%
    02:00 +20°C° 0 mm 1 m/S 759 mmHg 62%
    03:00 +20°C° 0 mm 1 m/S 759 mmHg 62%
    04:00 +20°C° 0 mm 1 m/S 759 mmHg 62%
    05:00 +18°C° 0 mm 0 m/S 760 mmHg 62%
    06:00 +20°C° 0 mm 0 m/S 760 mmHg 56%
    07:00 +22°C° 0 mm 0 m/S 760 mmHg 51%
    08:00 +26°C° 0 mm 1 m/S 760 mmHg 45%
    09:00 +27°C° 0 mm 1 m/S 760 mmHg 42%
    10:00 +28°C° 0 mm 1 m/S 760 mmHg 39%
    11:00 +29°C° 0 mm 1 m/S 760 mmHg 36%
    12:00 +30°C° 0 mm 2 m/S 760 mmHg 34%
    13:00 +30°C° 0 mm 2 m/S 760 mmHg 33%
    14:00 +30°C° 0 mm 2 m/S 759 mmHg 32%
    15:00 +30°C° 0 mm 2 m/S 759 mmHg 33%
    16:00 +30°C° 0 mm 2 m/S 759 mmHg 34%
    17:00 +30°C° 0 mm 2 m/S 759 mmHg 35%
    18:00 +28°C° 0 mm 2 m/S 760 mmHg 39%
    19:00 +27°C° 0 mm 1 m/S 760 mmHg 42%
    20:00 +25°C° 0 mm 1 m/S 760 mmHg 46%
    21:00 +24°C° 0 mm 1 m/S 760 mmHg 48%
    22:00 +24°C° 0 mm 2 m/S 760 mmHg 49%
    23:00 +23°C° 0 mm 2 m/S 760 mmHg 51%

    Morgen, 21 Juli, Sonntag

    Zeit Temperatur Niederschläge Wind Luftdruck Luftfeuchtigkeit
    00:00 +23°C° 0 mm 2 m/S 760 mmHg 53%
    01:00 +21°C° 0 mm 2 m/S 760 mmHg 55%
    02:00 +21°C° 0 mm 2 m/S 760 mmHg 57%
    03:00 +20°C° 0 mm 2 m/S 760 mmHg 59%
    04:00 +20°C° 0 mm 2 m/S 760 mmHg 61%
    05:00 +20°C° 0 mm 2 m/S 760 mmHg 63%
    06:00 +24°C° 0 mm 2 m/S 760 mmHg 57%
    07:00 +26°C° 0 mm 2 m/S 760 mmHg 50%
    08:00 +28°C° 0 mm 2 m/S 760 mmHg 44%
    09:00 +29°C° 0 mm 2 m/S 759 mmHg 41%
    10:00 +30°C° 0 mm 2 m/S 759 mmHg 37%
    11:00 +31°C° 0 mm 2 m/S 759 mmHg 33%
    12:00 +31°C° 0 mm 2 m/S 759 mmHg 34%
    13:00 +31°C° 0 mm 2 m/S 759 mmHg 34%
    14:00 +31°C° 0 mm 2 m/S 758 mmHg 34%
    15:00 +31°C° 0 mm 2 m/S 758 mmHg 35%
    16:00 +31°C° 0 mm 2 m/S 758 mmHg 36%
    17:00 +31°C° 0 mm 2 m/S 758 mmHg 37%
    18:00 +29°C° 0 mm 1 m/S 758 mmHg 40%
    19:00 +27°C° 0 mm 1 m/S 758 mmHg 44%
    20:00 +26°C° 0 mm 1 m/S 758 mmHg 48%
    21:00 +25°C° 0 mm 1 m/S 759 mmHg 49%
    22:00 +24°C° 0 mm 1 m/S 759 mmHg 51%
    23:00 +23°C° 0 mm 2 m/S 759 mmHg 53%

    übermorgen, 22 Juli, Montag

    Zeit Temperatur Niederschläge Wind Luftdruck Luftfeuchtigkeit
    00:00 +23°C° 0 mm 1 m/S 759 mmHg 55%
    01:00 +23°C° 0 mm 1 m/S 759 mmHg 56%
    02:00 +22°C° 0 mm 1 m/S 759 mmHg 58%
    03:00 +22°C° 0 mm 1 m/S 759 mmHg 60%
    04:00 +22°C° 0 mm 1 m/S 759 mmHg 62%
    05:00 +21°C° 0 mm 2 m/S 758 mmHg 64%
    06:00 +24°C° 0 mm 2 m/S 758 mmHg 58%
    07:00 +26°C° 0 mm 2 m/S 758 mmHg 52%
    08:00 +28°C° 0 mm 2 m/S 758 mmHg 45%
    09:00 +29°C° 0 mm 2 m/S 758 mmHg 42%
    10:00 +31°C° 0 mm 2 m/S 758 mmHg 38%
    11:00 +32°C° 0 mm 2 m/S 758 mmHg 35%
    12:00 +32°C° 0 mm 2 m/S 758 mmHg 35%
    13:00 +33°C° 0 mm 3 m/S 757 mmHg 36%
    14:00 +33°C° 0 mm 3 m/S 757 mmHg 36%
    15:00 +33°C° 0 mm 3 m/S 757 mmHg 37%
    16:00 +33°C° 0 mm 3 m/S 757 mmHg 39%
    17:00 +31°C° 0 mm 3 m/S 757 mmHg 41%
    18:00 +30°C° 0 mm 4 m/S 757 mmHg 45%
    19:00 +29°C° 0 mm 4 m/S 756 mmHg 50%
    20:00 +27°C° 0 mm 4 m/S 756 mmHg 55%
    21:00 +26°C° 0 mm 4 m/S 756 mmHg 57%
    22:00 +25°C° 0 mm 4 m/S 756 mmHg 58%
    23:00 +23°C° 0 mm 5 m/S 756 mmHg 60%

    23 Juli, Dienstag

    Zeit Temperatur Niederschläge Wind Luftdruck Luftfeuchtigkeit
    00:00 +23°C° 0 mm 4 m/S 756 mmHg 65%
    01:00 +22°C° 0 mm 3 m/S 756 mmHg 69%
    02:00 +23°C° 0 mm 2 m/S 756 mmHg 74%
    03:00 +23°C° 0 mm 2 m/S 756 mmHg 75%
    04:00 +23°C° 0 mm 1 m/S 756 mmHg 76%
    05:00 +23°C° 0 mm 1 m/S 755 mmHg 77%
    06:00 +24°C° 0 mm 1 m/S 755 mmHg 71%
    07:00 +26°C° 0 mm 2 m/S 755 mmHg 66%
    08:00 +27°C° 0 mm 2 m/S 755 mmHg 60%
    09:00 +27°C° 0.7 mm 3 m/S 755 mmHg 62%
    10:00 +26°C° 0.7 mm 4 m/S 755 mmHg 65%
    11:00 +26°C° 0.7 mm 5 m/S 755 mmHg 67%
    12:00 +26°C° 0.2 mm 4 m/S 755 mmHg 66%
    13:00 +26°C° 0.2 mm 4 m/S 755 mmHg 64%
    14:00 +26°C° 0.2 mm 4 m/S 755 mmHg 63%
    15:00 +25°C° 0.5 mm 3 m/S 755 mmHg 67%
    16:00 +24°C° 0.5 mm 2 m/S 755 mmHg 71%
    17:00 +24°C° 0.5 mm 1 m/S 755 mmHg 75%
    18:00 +23°C° 0 mm 1 m/S 755 mmHg 77%
    19:00 +22°C° 0 mm 1 m/S 755 mmHg 79%
    20:00 +22°C° 0 mm 1 m/S 755 mmHg 82%
    21:00 +22°C° 0 mm 1 m/S 755 mmHg 82%
    22:00 +20°C° 0 mm 0 m/S 755 mmHg 82%
    23:00 +19°C° 0 mm 0 m/S 755 mmHg 83%

    24 Juli, Mittwoch

    Zeit Temperatur Niederschläge Wind Luftdruck Luftfeuchtigkeit
    00:00 +21°C° 0 mm 1 m/S 755 mmHg 82%
    01:00 +21°C° 0 mm 1 m/S 755 mmHg 82%
    02:00 +21°C° 0 mm 1 m/S 755 mmHg 82%
    03:00 +21°C° 0 mm 1 m/S 754 mmHg 82%
    04:00 +21°C° 0 mm 1 m/S 754 mmHg 81%
    05:00 +20°C° 0 mm 2 m/S 754 mmHg 81%
    06:00 +21°C° 0 mm 2 m/S 754 mmHg 76%
    07:00 +22°C° 0 mm 3 m/S 754 mmHg 72%
    08:00 +24°C° 0 mm 3 m/S 754 mmHg 68%
    09:00 +25°C° 0 mm 3 m/S 754 mmHg 62%
    10:00 +26°C° 0 mm 3 m/S 754 mmHg 56%
    11:00 +28°C° 0 mm 3 m/S 754 mmHg 50%
    12:00 +28°C° 0 mm 3 m/S 754 mmHg 51%
    13:00 +28°C° 0 mm 3 m/S 754 mmHg 52%
    14:00 +28°C° 0 mm 3 m/S 754 mmHg 53%
    15:00 +28°C° 0.1 mm 3 m/S 753 mmHg 54%
    16:00 +27°C° 0.1 mm 3 m/S 753 mmHg 54%
    17:00 +27°C° 0.1 mm 3 m/S 753 mmHg 55%
    18:00 +26°C° 0 mm 3 m/S 753 mmHg 64%
    19:00 +24°C° 0 mm 3 m/S 753 mmHg 72%
    20:00 +21°C° 0 mm 3 m/S 753 mmHg 80%
    21:00 +21°C° 0.2 mm 3 m/S 753 mmHg 82%
    22:00 +21°C° 0.2 mm 3 m/S 753 mmHg 84%
    23:00 +20°C° 0.2 mm 3 m/S 754 mmHg 86%

    25 Juli, Donnerstag

    Zeit Temperatur Niederschläge Wind Luftdruck Luftfeuchtigkeit
    00:00 +20°C° 0.8 mm 3 m/S 753 mmHg 87%
    01:00 +20°C° 0.8 mm 3 m/S 753 mmHg 89%
    02:00 +20°C° 0.8 mm 3 m/S 753 mmHg 91%
    03:00 +20°C° 0.5 mm 3 m/S 753 mmHg 92%
    04:00 +20°C° 0.5 mm 3 m/S 752 mmHg 93%
    05:00 +20°C° 0.5 mm 3 m/S 752 mmHg 94%
    06:00 +21°C° 0.5 mm 3 m/S 752 mmHg 91%
    07:00 +21°C° 0.5 mm 2 m/S 752 mmHg 88%
    08:00 +23°C° 0.5 mm 2 m/S 752 mmHg 85%
    09:00 +23°C° 0.7 mm 2 m/S 752 mmHg 81%
    10:00 +24°C° 0.7 mm 2 m/S 752 mmHg 77%
    11:00 +25°C° 0.7 mm 2 m/S 752 mmHg 73%
    12:00 +25°C° 1.7 mm 3 m/S 752 mmHg 73%
    13:00 +25°C° 1.7 mm 3 m/S 752 mmHg 73%
    14:00 +25°C° 1.7 mm 3 m/S 752 mmHg 73%
    15:00 +25°C° 1.9 mm 3 m/S 752 mmHg 78%
    16:00 +24°C° 1.9 mm 3 m/S 752 mmHg 83%
    17:00 +22°C° 1.9 mm 3 m/S 752 mmHg 88%
    18:00 +22°C° 0.6 mm 3 m/S 752 mmHg 87%
    19:00 +21°C° 0.6 mm 2 m/S 752 mmHg 87%
    20:00 +21°C° 0.6 mm 2 m/S 752 mmHg 86%
    21:00 +21°C° 0 mm 2 m/S 752 mmHg 89%
    22:00 +20°C° 0 mm 2 m/S 752 mmHg 91%
    23:00 +20°C° 0 mm 2 m/S 752 mmHg 93%
    Mehr zeigen